Temperature
4 4 4 4 5 5 5 5 5 4 5 6 6 7 7 8 8 8 8 8 9 8 8 8 8 8 8 8 8 8 8 7 7 7 7 6 6 5
3 3 4 4 4 4 4 5 5 5 5 5 6 7 7 7 7 7 8 8 8 8 8 8 8 8 8 8 7 7 7 7 7 7 6 6 5 5
3 3 3 4 3 4 4 4 4 5 5 5 5 6 6 7 7 7 7 7 8 8 7 8 8 8 7 7 7 7 7 7 7 6 6 5 5 4
3 3 3 3 3 3 3 4 4 4 5 5 5 5 6 6 6 6 6 7 7 7 7 7 7 7 7 7 7 6 6 6 6 6 5 5 4 4
2 2 3 3 3 3 3 3 4 4 4 4 5 5 5 5 5 5 6 6 6 6 7 7 7 7 7 6 6 6 6 5 5 5 5 4 4 4
2 2 2 3 3 3 3 4 4 4 4 4 4 5 5 5 5 5 5 5 6 6 6 6 6 6 6 6 6 5 5 5 4 4 4 4 3 3
2 2 2 3 3 3 3 3 4 3 4 4 4 4 4 4 5 5 5 5 5 5 5 5 5 5 5 5 5 5 4 4 4 4 3 3 3 3
2 2 2 2 3 3 3 3 4 4 4 4 4 4 4 5 5 5 4 4 4 4 5 5 5 5 5 5 4 4 4 4 3 3 3 3 2 2
1 2 2 2 2 3 3 3 3 3 4 4 4 4 5 5 5 4 4 5 5 5 4 4 4 4 4 4 4 4 3 3 3 3 2 2 2 2
1 2 2 2 2 2 3 3 3 3 4 4 4 5 5 5 5 5 4 4 4 4 4 4 3 3 3 3 3 3 3 3 2 2 2 2 2 1
1 1 2 2 2 2 3 3 3 3 3 4 4 4 4 4 4 4 4 4 4 3 4 4 3 3 3 2 2 2 2 2 2 2 2 1 1 1
1 1 1 1 2 2 3 3 3 3 3 3 3 3 3 3 3 4 4 4 4 3 3 3 3 3 2 2 2 2 2 2 1 1 1 1 1 1
1 1 1 1 2 2 3 3 3 3 3 3 3 3 3 3 3 3 3 4 4 4 4 4 3 3 2 1 1 1 1 1 1 1 1 1 0 0
0 1 1 1 2 2 2 2 2 2 3 3 3 3 3 3 3 3 3 3 3 4 4 4 3 3 3 2 1 1 1 1 1 1 1 0 0 0
0 1 1 1 2 2 2 2 2 2 2 3 3 2 3 3 3 3 3 3 3 3 3 3 3 3 3 2 1 1 1 1 0 0 0 -0 -0 -0
0 0 1 1 2 2 2 2 2 2 2 2 2 2 2 2 2 3 3 3 3 2 2 2 3 3 3 2 2 1 1 0 0 -0 -0 -0 -1 -1
0 1 1 1 1 1 1 1 1 2 2 2 2 2 2 2 2 2 3 3 3 2 2 2 2 2 2 1 1 1 0 0 -0 -0 -0 -0 -1 -1
0 0 0 1 0 0 0 1 1 1 2 2 2 2 2 2 2 2 2 3 2 2 1 1 1 1 1 0 0 0 -0 -0 -0 -1 -1 -1 -1 -1
0 -0 -0 0 0 0 0 0 1 1 1 2 2 2 2 2 2 2 2 2 2 1 1 1 1 2 1 -0 -1 -1 -0 -0 -1 -1 -1 -1 -1 -2
-0 -1 -0 -0 0 0 0 0 0 1 1 1 2 2 2 2 2 2 2 2 1 1 1 1 1 1 1 0 -1 -1 -1 -1 -1 -1 -1 -2 -2 -2
-1 -1 -1 -0 0 0 0 0 0 0 1 1 1 2 2 2 2 1 1 1 1 1 0 0 0 1 1 0 -1 -1 -1 -1 -1 -1 -2 -2 -2 -2
-1 -1 -1 -0 0 0 0 0 0 0 0 1 1 1 1 1 1 1 1 1 1 1 0 -0 -0 -0 0 -0 -1 -1 -2 -2 -2 -2 -2 -2 -2 -2
-2 -1 -1 -0 -0 0 0 0 0 0 0 0 1 1 1 1 1 1 1 1 1 0 -0 -1 -1 -1 -1 -1 -1 -1 -2 -2 -2 -2 -2 -2 -2 -2
Wind_Speed
10 11 10 9 8 8 8 8 8 9 9 6 5 6 8 8 10 11 10 14 16 16 15 15 14 14 13 12 11 10 9 8 8 7 7 7 7 8
9 11 11 9 8 8 8 8 8 8 10 7 6 5 7 7 10 9 10 12 14 15 15 15 14 14 13 12 10 10 9 8 7 7 7 6 6 7
11 12 13 11 9 8 8 8 8 7 9 8 6 5 6 7 6 6 7 8 9 14 15 15 14 13 12 12 11 10 9 8 7 7 7 6 6 5
12 12 13 11 11 9 9 10 9 8 8 10 7 5 6 6 6 5 5 6 6 11 14 13 13 13 13 12 11 10 9 8 7 6 5 4 4 4
13 13 13 12 12 9 10 10 9 9 7 8 8 5 4 4 4 4 4 4 5 8 11 12 12 13 12 12 11 10 9 8 7 6 5 3 3 3
12 13 13 13 13 11 11 11 9 9 8 7 7 5 4 4 4 4 4 3 3 3 5 7 9 10 11 11 11 9 9 8 7 5 4 3 2 2
11 12 12 14 16 13 12 10 10 9 8 8 7 6 5 5 5 4 4 2 1 2 4 4 5 5 6 9 9 9 9 8 7 6 5 3 2 1
11 10 11 13 16 18 19 16 14 12 11 9 8 8 8 7 5 5 4 3 3 3 4 3 3 3 3 4 8 9 9 8 7 6 4 3 2 1
10 10 9 10 13 11 13 15 14 16 15 11 11 10 9 8 7 6 6 5 3 4 4 3 2 3 2 3 8 9 9 8 7 6 5 3 2 0
10 10 10 9 10 11 9 9 9 10 11 9 9 9 8 7 8 7 6 4 2 1 3 3 2 2 2 2 6 8 8 8 7 6 5 4 2 1
9 9 9 8 11 11 9 8 8 7 7 9 9 8 9 9 8 6 6 6 3 2 2 3 3 2 2 1 3 7 8 7 7 6 5 4 3 2
7 7 9 9 10 9 8 8 8 6 5 4 4 4 5 7 9 8 8 7 4 2 3 4 4 3 2 1 1 2 3 5 6 5 5 4 3 2
6 5 5 8 9 9 8 7 8 7 6 5 5 4 4 4 4 4 5 6 6 3 5 5 4 3 3 2 1 1 2 2 2 2 3 3 3 2
5 4 4 6 7 7 6 6 8 6 5 5 5 5 5 5 4 4 5 4 3 4 6 6 4 5 5 3 2 1 1 1 2 2 1 2 2 2
3 4 4 4 4 4 4 5 5 4 5 5 5 5 5 6 6 5 6 6 6 5 5 4 6 6 5 5 4 3 2 1 2 2 2 1 1 0
2 2 3 2 1 2 2 2 2 4 5 5 5 5 5 6 6 6 6 7 6 5 5 6 6 7 6 5 6 4 3 2 2 2 2 1 1 1
2 1 1 1 1 1 1 2 3 3 4 5 5 6 7 7 6 5 5 6 6 5 5 5 6 7 7 6 5 4 4 3 3 2 2 2 1 1
2 2 2 1 1 2 2 2 3 3 4 5 6 6 7 7 6 6 6 7 8 7 6 6 7 6 5 6 5 4 3 3 2 2 2 2 1 1
3 2 2 1 2 2 2 3 3 3 3 5 6 7 7 7 8 7 7 7 7 7 6 5 5 6 7 4 2 3 3 3 3 2 2 2 1 1
3 2 2 2 2 2 3 4 4 4 4 5 6 6 7 8 8 8 7 8 8 7 6 4 3 5 6 6 3 2 3 3 3 3 2 2 1 2
3 3 3 2 2 3 3 4 4 4 4 5 5 6 6 8 8 7 7 10 9 7 7 5 3 7 6 6 6 4 3 4 3 2 2 2 2 2
3 3 3 2 2 3 4 4 4 4 5 5 5 5 6 7 9 9 8 8 7 7 7 5 5 5 5 7 7 5 4 4 6 8 6 4 2 1
3 2 2 2 2 3 4 4 5 5 5 5 5 5 6 7 7 8 8 8 8 9 8 7 6 5 5 6 7 6 6 4 3 5 5 8 7 6
Wind_Direction
244 243 246 249 242 242 241 233 237 260 262 254 248 229 224 226 229 224 226 229 228 225 219 215 213 210 209 206 206 208 211 216 219 224 237 249 261 271
247 245 245 244 241 239 237 240 234 241 259 252 252 254 238 242 235 225 227 232 224 220 217 210 206 203 200 197 199 201 204 208 209 216 227 240 258 272
249 247 245 240 238 238 234 236 236 233 251 265 256 251 243 236 237 228 225 222 219 218 215 208 201 196 194 191 193 195 197 197 202 210 224 236 253 270
247 247 246 241 237 235 236 235 235 232 238 255 258 251 252 232 227 230 239 231 217 213 209 203 197 193 189 189 187 188 190 188 190 197 210 223 245 270
245 244 243 237 239 237 237 237 235 237 233 240 251 251 254 233 228 245 245 243 223 205 199 194 187 185 183 180 177 177 178 178 183 189 198 210 242 280
247 243 240 235 237 236 237 233 230 231 228 230 242 242 245 231 214 226 247 238 215 194 180 176 175 179 180 176 173 172 173 175 179 183 184 182 216 283
252 245 242 241 240 240 241 229 223 229 225 224 233 238 230 219 215 220 229 210 195 177 160 166 165 176 180 176 171 170 171 173 176 177 171 167 187 267
256 252 247 245 246 245 246 239 229 226 223 222 230 229 229 219 205 206 200 195 226 175 158 161 152 171 184 178 168 170 171 169 170 167 161 155 161 224
257 254 256 249 245 241 244 244 240 235 227 222 222 227 224 211 194 203 209 194 203 172 152 161 155 177 171 162 159 164 165 162 160 156 148 141 140 158
260 254 251 251 246 234 231 233 233 232 227 225 223 226 221 204 196 201 191 161 116 136 145 155 149 141 122 135 146 149 153 153 151 148 144 138 126 92
264 257 251 248 250 236 227 225 226 225 225 222 224 216 204 198 187 170 170 165 174 199 154 144 141 111 90 103 128 137 143 146 146 142 137 128 112 84
270 260 256 255 245 236 224 216 217 214 200 204 198 192 189 186 188 189 184 180 171 181 174 142 144 137 120 35 104 116 126 135 138 133 126 119 108 98
272 264 253 253 255 244 234 221 210 201 190 186 179 171 170 176 181 181 182 183 184 185 170 146 143 140 140 144 82 92 115 133 142 128 120 112 108 101
274 267 257 254 252 242 233 210 195 194 184 180 179 177 171 165 154 143 136 129 137 154 158 150 147 157 144 136 143 121 102 119 135 141 128 108 96 64
284 282 277 276 263 235 210 195 192 183 176 177 178 170 163 156 139 127 119 107 90 84 109 123 133 141 137 140 139 143 138 126 121 116 117 117 140 72
303 313 327 324 285 192 179 178 177 171 167 164 158 152 142 139 139 142 138 130 111 85 66 84 115 128 123 118 130 131 128 136 136 115 107 95 64 41
335 357 18 26 67 86 101 118 126 136 142 143 145 145 139 136 138 140 136 131 129 133 113 88 83 90 95 117 119 117 119 115 129 127 117 100 51 2
35 34 16 44 82 98 100 99 115 131 138 141 143 141 141 142 136 129 131 130 130 131 131 129 121 105 81 58 65 119 116 113 115 112 115 119 89 344
41 42 29 51 72 84 102 112 116 121 128 134 135 138 139 137 136 133 131 127 127 130 132 138 137 131 125 117 45 51 122 124 121 107 93 97 133 290
32 32 23 47 70 80 100 109 109 105 107 116 126 131 134 134 133 134 137 135 132 128 123 117 121 135 140 142 134 77 76 124 131 126 93 56 27 359
19 20 22 45 65 84 94 100 100 102 106 112 117 124 130 129 129 130 131 130 128 128 130 127 116 115 109 105 102 85 55 59 93 125 119 94 54 33
18 15 21 40 69 93 101 102 101 103 106 108 112 115 119 124 127 128 129 128 127 127 123 114 108 105 101 115 116 112 91 58 58 66 68 70 112 123
9 13 25 44 70 86 101 104 103 108 109 110 111 110 110 116 121 123 123 123 122 122 119 117 105 93 96 110 115 110 100 86 72 67 49 42 56 60
Height
1391 1392 1393 1393 1395 1397 1398 1399 1399 1396 1393 1394 1397 1399 1401 1403 1405 1407 1408 1411 1413 1415 1417 1420 1422 1424 1426 1428 1430 1431 1432 1434 1434 1435 1435 1435 1435 1435
1383 1384 1384 1385 1387 1389 1390 1391 1392 1392 1389 1388 1391 1393 1395 1396 1398 1400 1402 1404 1406 1408 1410 1413 1416 1418 1420 1422 1425 1426 1427 1428 1429 1430 1430 1430 1430 1430
1375 1375 1375 1377 1379 1381 1383 1384 1385 1386 1384 1383 1386 1387 1389 1390 1391 1394 1396 1397 1398 1401 1404 1407 1409 1411 1414 1417 1419 1420 1422 1423 1424 1425 1425 1425 1425 1425
1366 1367 1367 1369 1370 1373 1374 1376 1377 1379 1379 1378 1379 1381 1382 1384 1385 1387 1389 1390 1392 1395 1397 1400 1403 1406 1408 1411 1413 1415 1417 1418 1419 1420 1420 1420 1421 1420
1357 1358 1359 1361 1362 1364 1366 1368 1370 1372 1373 1373 1373 1375 1377 1379 1380 1381 1383 1384 1386 1389 1391 1394 1397 1400 1403 1405 1408 1410 1411 1413 1414 1415 1416 1416 1416 1416
1349 1349 1350 1352 1354 1356 1358 1360 1363 1365 1366 1367 1368 1369 1371 1373 1375 1375 1377 1379 1380 1383 1386 1389 1392 1395 1398 1400 1403 1405 1407 1409 1410 1411 1412 1412 1412 1412
1341 1341 1342 1344 1346 1349 1351 1352 1355 1357 1359 1360 1362 1363 1365 1367 1368 1371 1372 1373 1375 1378 1381 1384 1388 1391 1393 1396 1398 1400 1403 1405 1406 1407 1408 1408 1408 1409
1333 1334 1335 1336 1338 1341 1343 1345 1348 1350 1351 1354 1355 1357 1358 1361 1363 1366 1368 1369 1370 1374 1377 1380 1384 1387 1389 1392 1394 1397 1399 1401 1403 1404 1404 1405 1405 1405
1327 1327 1327 1329 1331 1333 1335 1338 1340 1343 1345 1348 1348 1350 1352 1354 1358 1360 1363 1364 1366 1369 1374 1376 1380 1383 1386 1388 1391 1393 1396 1398 1400 1401 1401 1402 1402 1402
1321 1321 1321 1322 1324 1326 1328 1330 1332 1335 1338 1341 1342 1344 1347 1350 1353 1356 1358 1361 1363 1367 1370 1373 1377 1380 1383 1385 1388 1390 1393 1395 1397 1398 1399 1399 1399 1399
1315 1315 1315 1316 1317 1319 1321 1323 1325 1327 1331 1333 1336 1338 1341 1345 1349 1352 1354 1357 1359 1362 1366 1370 1373 1377 1380 1383 1385 1388 1390 1392 1394 1395 1396 1397 1397 1397
1309 1309 1309 1310 1311 1313 1315 1317 1319 1321 1324 1327 1329 1333 1336 1340 1344 1347 1350 1353 1355 1359 1362 1366 1370 1373 1378 1381 1383 1385 1388 1390 1392 1393 1394 1394 1395 1394
1303 1303 1304 1305 1306 1308 1310 1312 1313 1316 1318 1321 1324 1327 1331 1335 1338 1342 1346 1350 1352 1354 1358 1362 1366 1370 1374 1378 1381 1383 1385 1387 1389 1390 1391 1392 1392 1392
1299 1299 1299 1300 1301 1303 1305 1307 1309 1312 1313 1316 1319 1322 1326 1330 1334 1338 1342 1346 1349 1352 1356 1360 1363 1367 1370 1374 1378 1381 1383 1385 1387 1388 1389 1390 1391 1391
1297 1296 1296 1297 1297 1299 1301 1302 1305 1307 1309 1312 1315 1318 1322 1326 1330 1335 1339 1343 1346 1350 1354 1358 1362 1365 1369 1371 1375 1378 1381 1383 1385 1386 1387 1388 1389 1389
1295 1294 1294 1294 1294 1295 1297 1299 1301 1303 1306 1308 1311 1315 1320 1324 1328 1333 1336 1340 1344 1348 1353 1357 1360 1364 1367 1370 1373 1376 1379 1381 1383 1384 1386 1387 1387 1388
1294 1293 1292 1292 1292 1293 1294 1296 1298 1301 1304 1306 1310 1313 1318 1322 1326 1331 1335 1339 1342 1346 1351 1355 1359 1363 1367 1370 1372 1375 1378 1379 1381 1383 1385 1386 1386 1387
1294 1293 1292 1292 1292 1292 1293 1295 1298 1300 1303 1306 1309 1313 1317 1321 1325 1330 1334 1338 1341 1346 1350 1354 1358 1362 1366 1370 1373 1375 1377 1379 1381 1383 1384 1385 1386 1386
1294 1293 1293 1293 1293 1294 1295 1296 1298 1301 1303 1306 1309 1313 1317 1321 1325 1329 1333 1337 1341 1345 1350 1354 1357 1360 1363 1368 1374 1376 1378 1379 1381 1383 1384 1385 1386 1386
1295 1295 1295 1294 1295 1295 1296 1298 1299 1302 1304 1307 1310 1313 1317 1321 1325 1329 1333 1337 1341 1345 1349 1354 1357 1361 1363 1367 1371 1376 1378 1380 1381 1382 1384 1385 1386 1387
1296 1296 1297 1297 1297 1298 1299 1300 1302 1304 1306 1309 1311 1315 1318 1322 1325 1330 1334 1338 1341 1346 1350 1354 1358 1362 1365 1368 1371 1375 1379 1381 1383 1383 1384 1385 1385 1386
1298 1298 1299 1299 1300 1301 1302 1303 1304 1306 1308 1311 1313 1316 1320 1323 1327 1331 1334 1338 1342 1347 1351 1355 1359 1363 1366 1368 1371 1375 1378 1381 1383 1385 1386 1386 1386 1386
1301 1301 1301 1302 1303 1303 1305 1306 1307 1309 1311 1313 1316 1318 1322 1325 1329 1332 1336 1340 1344 1348 1352 1356 1360 1364 1367 1370 1373 1376 1379 1382 1384 1385 1386 1387 1388 1388